FFT152 KBOS-KTYS

Flight info

Callsign FFT152
Flight time 2h 19m
Altitude 38000
Route BLZZR6 BLZZR BAF Q448 PTW J48 CSN FANPO Q40 ALEAN VXV
Aircraft A20N/M-SDE2E3FGHIRWXY/LB1

Departure

Time 2026-05-06 23:23
Airport Boston Logan International Airport (KBOS)

Arrival

Time 2026-05-07 01:42
Airport McGhee Tyson Airport (KTYS)
Time Latitude Longitude Altitude Speed Heading
2026-05-06 23:02 42.36206 -71.01676 16 ft 0 kts 231°
2026-05-06 23:11 42.36208 -71.01672 25 ft 1 kts 231°
2026-05-06 23:12 42.36212 -71.01666 26 ft 1 kts 230°
2026-05-06 23:12 42.36216 -71.01658 26 ft 2 kts 222°
2026-05-06 23:12 42.36228 -71.01646 26 ft 2 kts 204°
2026-05-06 23:12 42.36242 -71.01641 26 ft 2 kts 172°
2026-05-06 23:13 42.36254 -71.01645 25 ft 0 kts 148°
2026-05-06 23:14 42.36253 -71.01645 24 ft 1 kts 148°
2026-05-06 23:15 42.36243 -71.01621 32 ft 6 kts 113°
2026-05-06 23:15 42.36239 -71.01608 25 ft 0 kts 110°
2026-05-06 23:17 42.36239 -71.01607 26 ft 2 kts 110°
2026-05-06 23:17 42.36223 -71.01553 22 ft 10 kts 114°
2026-05-06 23:17 42.36187 -71.01444 24 ft 15 kts 85°
2026-05-06 23:17 42.36290 -71.01352 25 ft 23 kts 15°
2026-05-06 23:18 42.36466 -71.01267 23 ft 31 kts 20°
2026-05-06 23:18 42.36584 -71.01211 25 ft 25 kts 18°
2026-05-06 23:18 42.36770 -71.01149 28 ft 31 kts 341°
2026-05-06 23:18 42.36925 -71.01202 25 ft 4 kts 46°
2026-05-06 23:19 42.36962 -71.01146 25 ft 12 kts 47°
2026-05-06 23:19 42.37113 -71.01029 20 ft 20 kts 25°
2026-05-06 23:19 42.37183 -71.00984 21 ft 17 kts 26°
2026-05-06 23:19 42.37291 -71.00912 20 ft 22 kts 22°
2026-05-06 23:20 42.37389 -71.00863 20 ft 6 kts 21°
2026-05-06 23:20 42.37443 -71.00834 21 ft 12 kts 21°
2026-05-06 23:20 42.37553 -71.00780 22 ft 21 kts 20°
2026-05-06 23:20 42.37710 -71.00706 27 ft 20 kts 19°
2026-05-06 23:21 42.37797 -71.00664 28 ft 17 kts 20°
2026-05-06 23:21 42.37836 -71.00575 26 ft 0 kts 108°
2026-05-06 23:21 42.37819 -71.00519 29 ft 12 kts 122°
2026-05-06 23:22 42.37728 -71.00501 24 ft 16 kts 198°
2026-05-06 23:22 42.37715 -71.00507 25 ft 0 kts 198°
2026-05-06 23:22 42.37643 -71.00539 27 ft 43 kts 198°
2026-05-06 23:22 42.37108 -71.00795 20 ft 116 kts 200°
2026-05-06 23:23 42.36205 -71.01233 159 ft 159 kts 199°
2026-05-06 23:23 42.35093 -71.01783 713 ft 173 kts 195°
2026-05-06 23:23 42.33863 -71.01614 1236 ft 197 kts 161°
2026-05-06 23:23 42.32835 -71.00269 2007 ft 220 kts 134°
2026-05-06 23:24 42.31961 -70.98504 2537 ft 232 kts 133°
2026-05-06 23:24 42.31230 -70.96497 3230 ft 250 kts 107°
2026-05-06 23:24 42.31261 -70.94091 4038 ft 263 kts 83°
2026-05-06 23:24 42.31625 -70.91581 4656 ft 281 kts 79°
2026-05-06 23:25 42.32074 -70.88905 5171 ft 303 kts 79°
2026-05-06 23:25 42.32518 -70.86082 5973 ft 309 kts 79°
2026-05-06 23:25 42.32950 -70.83182 6791 ft 316 kts 81°
2026-05-06 23:25 42.33087 -70.80252 7621 ft 314 kts 102°
2026-05-06 23:26 42.32417 -70.77510 8376 ft 307 kts 124°
2026-05-06 23:26 42.31365 -70.74970 9192 ft 311 kts 127°
2026-05-06 23:26 42.30010 -70.72806 10026 ft 302 kts 150°
2026-05-06 23:26 42.28161 -70.71563 10622 ft 297 kts 174°
2026-05-06 23:27 42.26139 -70.71476 11282 ft 288 kts 195°
2026-05-06 23:27 42.24180 -70.71976 12084 ft 288 kts 198°
2026-05-06 23:27 42.22200 -70.72563 12868 ft 290 kts 201°
2026-05-06 23:27 42.20386 -70.73657 13617 ft 284 kts 219°
2026-05-06 23:28 42.18988 -70.75509 14283 ft 283 kts 237°
2026-05-06 23:28 42.18162 -70.77907 14941 ft 285 kts 255°
2026-05-06 23:28 42.17793 -70.80572 15391 ft 298 kts 258°
2026-05-06 23:28 42.17420 -70.83411 15573 ft 317 kts 258°
2026-05-06 23:29 42.17019 -70.86403 15950 ft 328 kts 258°
2026-05-06 23:29 42.16614 -70.89402 16603 ft 331 kts 258°
2026-05-06 23:29 42.16247 -70.92484 17249 ft 335 kts 262°
2026-05-06 23:29 42.16140 -70.95640 17889 ft 340 kts 268°
2026-05-06 23:30 42.16316 -70.98848 18461 ft 346 kts 272°
2026-05-06 23:30 42.16567 -71.02088 19019 ft 348 kts 272°
2026-05-06 23:30 42.16809 -71.05351 19577 ft 351 kts 272°
2026-05-06 23:30 42.17048 -71.08630 20149 ft 353 kts 272°
2026-05-06 23:31 42.17286 -71.11933 20703 ft 355 kts 272°
2026-05-06 23:31 42.17524 -71.15264 21248 ft 358 kts 273°
2026-05-06 23:31 42.17765 -71.18626 21806 ft 361 kts 273°
2026-05-06 23:31 42.18006 -71.22004 22329 ft 363 kts 273°
2026-05-06 23:32 42.18245 -71.25372 22855 ft 366 kts 273°
2026-05-06 23:32 42.18487 -71.28794 23397 ft 368 kts 274°
2026-05-06 23:32 42.18731 -71.32249 23862 ft 370 kts 273°
2026-05-06 23:32 42.18974 -71.35699 24367 ft 370 kts 273°
2026-05-06 23:33 42.19217 -71.39156 24815 ft 372 kts 273°
2026-05-06 23:33 42.19459 -71.42632 25270 ft 373 kts 273°
2026-05-06 23:33 42.19701 -71.46122 25702 ft 374 kts 273°
2026-05-06 23:33 42.19945 -71.49629 26142 ft 375 kts 273°
2026-05-06 23:34 42.20182 -71.53102 26532 ft 377 kts 273°
2026-05-06 23:34 42.20424 -71.56636 26947 ft 378 kts 273°
2026-05-06 23:34 42.20665 -71.60173 27355 ft 380 kts 273°
2026-05-06 23:34 42.20907 -71.63732 27731 ft 381 kts 273°
2026-05-06 23:35 42.21151 -71.67298 28104 ft 383 kts 273°
2026-05-06 23:35 42.21394 -71.70884 28473 ft 384 kts 273°
2026-05-06 23:35 42.21616 -71.74484 28831 ft 385 kts 271°
2026-05-06 23:35 42.21624 -71.78100 29206 ft 385 kts 266°
2026-05-06 23:36 42.21425 -71.81717 29531 ft 386 kts 265°
2026-05-06 23:36 42.21224 -71.85294 29830 ft 388 kts 265°
2026-05-06 23:36 42.21024 -71.88980 30125 ft 389 kts 265°
2026-05-06 23:36 42.20830 -71.92577 30448 ft 389 kts 265°
2026-05-06 23:37 42.20629 -71.96224 30712 ft 391 kts 265°
2026-05-06 23:37 42.20426 -71.99895 31030 ft 392 kts 265°
2026-05-06 23:37 42.20222 -72.03552 31415 ft 390 kts 265°
2026-05-06 23:37 42.20015 -72.07186 31851 ft 387 kts 265°
2026-05-06 23:38 42.19808 -72.10796 32254 ft 385 kts 266°
2026-05-06 23:38 42.19603 -72.14393 32620 ft 383 kts 266°
2026-05-06 23:38 42.19399 -72.17960 32989 ft 382 kts 266°
2026-05-06 23:38 42.19193 -72.21529 33392 ft 379 kts 266°
2026-05-06 23:39 42.18990 -72.25015 33733 ft 377 kts 266°
2026-05-06 23:39 42.18786 -72.28541 34029 ft 376 kts 266°
2026-05-06 23:39 42.18580 -72.32058 34294 ft 375 kts 266°
2026-05-06 23:39 42.18375 -72.35553 34593 ft 373 kts 266°
2026-05-06 23:40 42.18169 -72.39039 34838 ft 372 kts 266°
2026-05-06 23:40 42.17962 -72.42509 35065 ft 371 kts 266°
2026-05-06 23:40 42.17755 -72.45985 35285 ft 371 kts 266°
2026-05-06 23:40 42.17547 -72.49440 35551 ft 369 kts 266°
2026-05-06 23:41 42.17338 -72.52890 35772 ft 368 kts 266°
2026-05-06 23:41 42.17133 -72.56284 35972 ft 368 kts 266°
2026-05-06 23:41 42.16924 -72.59714 36151 ft 367 kts 265°
2026-05-06 23:41 42.16715 -72.63135 36430 ft 365 kts 265°
2026-05-06 23:42 42.16459 -72.66542 36615 ft 365 kts 261°
2026-05-06 23:42 42.15867 -72.69877 36785 ft 366 kts 254°
2026-05-06 23:42 42.14903 -72.73073 36941 ft 369 kts 247°
2026-05-06 23:42 42.13585 -72.76058 37095 ft 373 kts 240°
2026-05-06 23:43 42.11986 -72.78828 37225 ft 375 kts 238°
2026-05-06 23:43 42.10367 -72.81581 37348 ft 375 kts 238°
2026-05-06 23:43 42.08776 -72.84302 37462 ft 375 kts 238°
2026-05-06 23:43 42.07162 -72.87064 37648 ft 373 kts 238°
2026-05-06 23:44 42.05553 -72.89813 37772 ft 373 kts 238°
2026-05-06 23:44 42.02335 -72.95304 37798 ft 373 kts 238°
2026-05-06 23:45 41.99119 -73.00769 37806 ft 372 kts 237°
2026-05-06 23:45 41.95537 -73.05896 37797 ft 380 kts 230°
2026-05-06 23:46 41.91385 -73.10312 37803 ft 387 kts 223°
2026-05-06 23:46 41.86788 -73.14187 37806 ft 390 kts 221°
2026-05-06 23:47 41.82183 -73.18044 37802 ft 389 kts 221°
2026-05-06 23:47 41.77591 -73.21891 37810 ft 389 kts 221°
2026-05-06 23:48 41.73006 -73.25726 37817 ft 388 kts 222°
2026-05-06 23:48 41.68496 -73.29584 37823 ft 385 kts 225°
2026-05-06 23:49 41.64438 -73.34064 37827 ft 373 kts 233°
2026-05-06 23:49 41.60954 -73.39164 37820 ft 369 kts 237°
2026-05-06 23:50 41.57632 -73.44313 37822 ft 367 kts 237°
2026-05-06 23:50 41.52599 -73.52043 37824 ft 365 kts 237°
2026-05-06 23:51 41.49245 -73.57178 37827 ft 368 kts 237°
2026-05-06 23:51 41.45907 -73.62279 37824 ft 366 kts 237°
2026-05-06 23:52 41.42557 -73.67393 37822 ft 366 kts 237°
2026-05-06 23:52 41.39206 -73.72498 37823 ft 365 kts 237°
2026-05-06 23:53 41.35857 -73.77590 37810 ft 364 kts 237°
2026-05-06 23:53 41.32505 -73.82644 37801 ft 364 kts 237°
2026-05-06 23:54 41.29113 -73.87636 37798 ft 363 kts 237°
2026-05-06 23:54 41.25743 -73.92588 37797 ft 362 kts 237°
2026-05-06 23:55 41.22368 -73.97552 37799 ft 361 kts 237°
2026-05-06 23:55 41.18993 -74.02510 37798 ft 361 kts 237°
2026-05-06 23:56 41.15650 -74.07419 37793 ft 360 kts 237°
2026-05-06 23:56 41.12339 -74.12404 37795 ft 357 kts 240°
2026-05-06 23:57 41.09229 -74.17538 37810 ft 356 kts 240°
2026-05-06 23:57 41.06134 -74.22615 37815 ft 357 kts 240°
2026-05-06 23:58 41.02984 -74.27722 37822 ft 358 kts 240°
2026-05-06 23:58 40.99828 -74.32814 37829 ft 356 kts 240°
2026-05-06 23:59 40.96684 -74.37884 37839 ft 357 kts 240°
2026-05-06 23:59 40.93553 -74.42922 37837 ft 355 kts 240°
2026-05-07 00:00 40.90413 -74.47965 37831 ft 354 kts 240°
2026-05-07 00:00 40.87811 -74.52138 37829 ft 353 kts 240°
2026-05-07 00:01 40.84185 -74.57945 37822 ft 351 kts 241°
2026-05-07 00:01 40.81071 -74.62923 37817 ft 350 kts 241°
2026-05-07 00:02 40.77966 -74.67879 37799 ft 349 kts 241°
2026-05-07 00:02 40.74890 -74.72783 37797 ft 348 kts 241°
2026-05-07 00:03 40.71784 -74.77731 37823 ft 351 kts 241°
2026-05-07 00:03 40.68659 -74.82689 37826 ft 349 kts 241°
2026-05-07 00:04 40.65585 -74.87562 37821 ft 348 kts 241°
2026-05-07 00:04 40.62492 -74.92460 37821 ft 346 kts 241°
2026-05-07 00:05 40.59411 -74.97331 37825 ft 346 kts 241°
2026-05-07 00:05 40.56327 -75.02201 37834 ft 346 kts 241°
2026-05-07 00:06 40.53258 -75.07062 37832 ft 345 kts 242°
2026-05-07 00:06 40.50724 -75.11094 37840 ft 344 kts 242°
2026-05-07 00:07 40.47163 -75.16750 37867 ft 345 kts 242°
2026-05-07 00:07 40.44102 -75.21593 37855 ft 343 kts 242°
2026-05-07 00:08 40.41565 -75.25603 37860 ft 343 kts 242°
2026-05-07 00:08 40.38521 -75.30410 37859 ft 342 kts 242°
2026-05-07 00:09 40.35480 -75.35203 37855 ft 342 kts 242°
2026-05-07 00:09 40.32439 -75.39990 37853 ft 340 kts 242°
2026-05-07 00:10 40.29428 -75.44720 37862 ft 339 kts 242°
2026-05-07 00:10 40.26408 -75.49458 37848 ft 337 kts 242°
2026-05-07 00:11 40.23402 -75.54167 37845 ft 336 kts 242°
2026-05-07 00:11 40.20697 -75.59013 37844 ft 328 kts 247°
2026-05-07 00:12 40.18207 -75.64011 37872 ft 328 kts 247°
2026-05-07 00:12 40.15684 -75.69048 37866 ft 332 kts 246°
2026-05-07 00:13 40.13161 -75.74051 37866 ft 330 kts 247°
2026-05-07 00:13 40.10634 -75.79061 37860 ft 330 kts 247°
2026-05-07 00:14 40.08110 -75.84057 37858 ft 329 kts 247°
2026-05-07 00:14 40.05585 -75.89041 37857 ft 329 kts 247°
2026-05-07 00:15 40.03081 -75.93987 37859 ft 328 kts 247°
2026-05-07 00:15 40.00559 -75.98954 37854 ft 328 kts 246°
2026-05-07 00:16 39.98040 -76.03903 37853 ft 328 kts 246°
2026-05-07 00:16 39.95523 -76.08840 37847 ft 326 kts 247°
2026-05-07 00:17 39.93008 -76.13773 37850 ft 326 kts 246°
2026-05-07 00:17 39.90501 -76.18676 37846 ft 326 kts 246°
2026-05-07 00:18 39.87984 -76.23594 37846 ft 326 kts 246°
2026-05-07 00:18 39.85468 -76.28505 37845 ft 325 kts 246°
2026-05-07 00:19 39.82965 -76.33380 37847 ft 326 kts 246°
2026-05-07 00:19 39.80443 -76.38290 37865 ft 327 kts 246°
2026-05-07 00:20 39.77913 -76.43198 37866 ft 327 kts 246°
2026-05-07 00:20 39.75379 -76.48109 37875 ft 327 kts 246°
2026-05-07 00:21 39.72838 -76.53037 37868 ft 327 kts 246°
2026-05-07 00:21 39.70317 -76.57905 37871 ft 327 kts 246°
2026-05-07 00:22 39.67776 -76.62804 37877 ft 327 kts 246°
2026-05-07 00:22 39.65230 -76.67710 37880 ft 327 kts 246°
2026-05-07 00:23 39.62698 -76.72588 37885 ft 328 kts 246°
2026-05-07 00:23 39.60145 -76.77487 37881 ft 328 kts 246°
2026-05-07 00:24 39.57590 -76.82387 37902 ft 328 kts 246°
2026-05-07 00:24 39.55037 -76.87280 37904 ft 328 kts 246°
2026-05-07 00:25 39.52472 -76.92190 37904 ft 328 kts 246°
2026-05-07 00:25 39.49627 -76.96932 37906 ft 338 kts 241°
2026-05-07 00:26 39.46269 -77.01266 37904 ft 348 kts 234°
2026-05-07 00:26 39.42468 -77.05273 37905 ft 353 kts 233°
2026-05-07 00:27 39.38656 -77.09278 37898 ft 352 kts 233°
2026-05-07 00:27 39.34842 -77.13289 37895 ft 353 kts 233°
2026-05-07 00:28 39.31044 -77.17267 37901 ft 354 kts 233°
2026-05-07 00:28 39.27214 -77.21275 37895 ft 353 kts 233°
2026-05-07 00:29 39.23393 -77.25271 37906 ft 354 kts 233°
2026-05-07 00:30 39.15726 -77.33281 37898 ft 355 kts 233°
2026-05-07 00:30 39.11883 -77.37285 37909 ft 356 kts 233°
2026-05-07 00:31 39.08027 -77.41294 37911 ft 356 kts 233°
2026-05-07 00:31 39.04160 -77.45304 37910 ft 357 kts 233°
2026-05-07 00:32 39.00310 -77.49294 37884 ft 357 kts 233°
2026-05-07 00:32 38.96434 -77.53306 37889 ft 358 kts 233°
2026-05-07 00:33 38.92557 -77.57316 37887 ft 358 kts 233°
2026-05-07 00:33 38.88665 -77.61337 37887 ft 359 kts 233°
2026-05-07 00:34 38.84770 -77.65354 37894 ft 359 kts 233°
2026-05-07 00:34 38.80868 -77.69368 37893 ft 360 kts 232°
2026-05-07 00:35 38.76964 -77.73380 37883 ft 359 kts 233°
2026-05-07 00:35 38.73064 -77.77382 37896 ft 359 kts 233°
2026-05-07 00:36 38.69175 -77.81371 37899 ft 360 kts 232°
2026-05-07 00:36 38.65342 -77.85461 37891 ft 353 kts 236°
2026-05-07 00:37 38.62064 -77.90008 37882 ft 343 kts 243°
2026-05-07 00:37 38.59201 -77.94838 37886 ft 341 kts 244°
2026-05-07 00:38 38.56343 -77.99661 37879 ft 339 kts 244°
2026-05-07 00:38 38.53499 -78.04451 37880 ft 340 kts 244°
2026-05-07 00:39 38.50624 -78.09256 37877 ft 341 kts 244°
2026-05-07 00:39 38.47742 -78.14095 37877 ft 342 kts 244°
2026-05-07 00:40 38.44860 -78.18911 37870 ft 340 kts 244°
2026-05-07 00:40 38.42058 -78.23723 37866 ft 337 kts 246°
2026-05-07 00:41 38.39592 -78.28765 37869 ft 334 kts 248°
2026-05-07 00:41 38.37142 -78.33818 37865 ft 334 kts 248°
2026-05-07 00:42 38.34687 -78.38860 37874 ft 335 kts 248°
2026-05-07 00:42 38.32240 -78.43866 37872 ft 335 kts 248°
2026-05-07 00:43 38.29775 -78.48894 37876 ft 333 kts 248°
2026-05-07 00:43 38.27317 -78.53917 37874 ft 334 kts 248°
2026-05-07 00:44 38.24850 -78.58947 37873 ft 335 kts 248°
2026-05-07 00:44 38.22398 -78.63932 37871 ft 334 kts 247°
2026-05-07 00:45 38.19928 -78.68949 37911 ft 334 kts 247°
2026-05-07 00:45 38.17481 -78.73904 37913 ft 331 kts 247°
2026-05-07 00:46 38.15033 -78.78869 37914 ft 334 kts 247°
2026-05-07 00:46 38.12559 -78.83877 37910 ft 334 kts 247°
2026-05-07 00:47 38.10095 -78.88842 37909 ft 334 kts 247°
2026-05-07 00:47 38.07618 -78.93838 37905 ft 334 kts 247°
2026-05-07 00:48 38.05142 -78.98818 37899 ft 333 kts 247°
2026-05-07 00:48 38.02680 -79.03764 37894 ft 333 kts 247°
2026-05-07 00:49 38.00197 -79.08750 37896 ft 334 kts 247°
2026-05-07 00:49 37.97724 -79.13702 37940 ft 334 kts 247°
2026-05-07 00:50 37.95240 -79.18667 37970 ft 332 kts 247°
2026-05-07 00:50 37.92768 -79.23602 38003 ft 331 kts 247°
2026-05-07 00:51 37.90294 -79.28538 38042 ft 332 kts 247°
2026-05-07 00:51 37.87819 -79.33468 38071 ft 331 kts 246°
2026-05-07 00:52 37.85356 -79.38343 38092 ft 330 kts 246°
2026-05-07 00:52 37.82872 -79.43256 38097 ft 331 kts 246°
2026-05-07 00:53 37.80397 -79.48140 37663 ft 327 kts 246°
2026-05-07 00:53 37.79167 -79.50565 37015 ft 328 kts 246°
2026-05-07 00:53 37.77931 -79.53009 36375 ft 330 kts 246°
2026-05-07 00:54 37.76704 -79.55433 36141 ft 334 kts 246°
2026-05-07 00:54 37.75439 -79.57933 36066 ft 340 kts 245°
2026-05-07 00:54 37.72865 -79.62988 36030 ft 340 kts 245°
2026-05-07 00:55 37.70309 -79.67987 36004 ft 342 kts 245°
2026-05-07 00:55 37.67726 -79.73045 35973 ft 344 kts 245°
2026-05-07 00:56 37.65137 -79.78105 35919 ft 342 kts 245°
2026-05-07 00:56 37.62587 -79.83083 35907 ft 338 kts 245°
2026-05-07 00:57 37.60025 -79.88088 35904 ft 340 kts 245°
2026-05-07 00:57 37.57457 -79.93082 35912 ft 339 kts 245°
2026-05-07 00:58 37.54879 -79.98095 35911 ft 339 kts 245°
2026-05-07 00:58 37.52332 -80.03045 35914 ft 338 kts 246°
2026-05-07 00:59 37.48907 -80.09682 35934 ft 339 kts 245°
2026-05-07 01:00 37.46318 -80.14704 35926 ft 343 kts 245°
2026-05-07 01:00 37.43740 -80.19662 35935 ft 336 kts 245°
2026-05-07 01:01 37.41172 -80.24620 35929 ft 338 kts 245°
2026-05-07 01:01 37.38615 -80.29548 35963 ft 338 kts 245°
2026-05-07 01:02 37.36040 -80.34498 35973 ft 337 kts 245°
2026-05-07 01:02 37.33468 -80.39434 35987 ft 338 kts 245°
2026-05-07 01:03 37.30888 -80.44379 35992 ft 337 kts 245°
2026-05-07 01:03 37.28308 -80.49314 35999 ft 338 kts 245°
2026-05-07 01:04 37.25796 -80.54281 35991 ft 335 kts 247°
2026-05-07 01:04 37.23421 -80.59315 35963 ft 335 kts 247°
2026-05-07 01:05 37.21045 -80.64307 35968 ft 334 kts 247°
2026-05-07 01:05 37.18640 -80.69318 35971 ft 335 kts 246°
2026-05-07 01:06 37.16227 -80.74329 35969 ft 335 kts 247°
2026-05-07 01:06 37.13821 -80.79312 35972 ft 337 kts 247°
2026-05-07 01:07 37.11392 -80.84341 35962 ft 336 kts 246°
2026-05-07 01:07 37.08955 -80.89373 35947 ft 338 kts 246°
2026-05-07 01:08 37.06542 -80.94334 35941 ft 334 kts 246°
2026-05-07 01:08 37.04121 -80.99331 35932 ft 335 kts 246°
2026-05-07 01:09 37.01698 -81.04316 35947 ft 335 kts 246°
2026-05-07 01:09 36.99286 -81.09271 35967 ft 335 kts 246°
2026-05-07 01:10 36.96850 -81.14263 35987 ft 336 kts 246°
2026-05-07 01:10 36.94411 -81.19254 36005 ft 336 kts 246°
2026-05-07 01:11 36.91975 -81.24235 36015 ft 335 kts 246°
2026-05-07 01:11 36.89552 -81.29180 36019 ft 335 kts 246°
2026-05-07 01:12 36.87111 -81.34153 36019 ft 336 kts 246°
2026-05-07 01:12 36.84671 -81.39118 36018 ft 335 kts 246°
2026-05-07 01:13 36.82229 -81.44078 36007 ft 334 kts 246°
2026-05-07 01:13 36.79795 -81.49016 35997 ft 332 kts 246°
2026-05-07 01:14 36.77378 -81.53922 35989 ft 337 kts 246°
2026-05-07 01:14 36.74921 -81.58888 35973 ft 334 kts 246°
2026-05-07 01:15 36.72680 -81.63939 35959 ft 331 kts 251°
2026-05-07 01:15 36.70892 -81.69209 35963 ft 329 kts 252°
2026-05-07 01:16 36.69139 -81.74441 35964 ft 329 kts 252°
2026-05-07 01:16 36.67371 -81.79696 35940 ft 328 kts 252°
2026-05-07 01:16 36.66484 -81.82326 35722 ft 330 kts 252°
2026-05-07 01:17 36.65592 -81.84968 35484 ft 331 kts 252°
2026-05-07 01:17 36.64697 -81.87614 35254 ft 332 kts 252°
2026-05-07 01:17 36.63798 -81.90269 35017 ft 333 kts 252°
2026-05-07 01:17 36.62896 -81.92935 34789 ft 334 kts 252°
2026-05-07 01:18 36.61991 -81.95604 34555 ft 335 kts 252°
2026-05-07 01:18 36.61094 -81.98246 34322 ft 335 kts 252°
2026-05-07 01:18 36.60184 -82.00929 33818 ft 339 kts 252°
2026-05-07 01:18 36.59258 -82.03664 32927 ft 345 kts 251°
2026-05-07 01:19 36.58322 -82.06417 32318 ft 344 kts 251°
2026-05-07 01:19 36.57390 -82.09156 31620 ft 344 kts 250°
2026-05-07 01:19 36.56456 -82.11902 30875 ft 345 kts 250°
2026-05-07 01:19 36.55519 -82.14658 30448 ft 348 kts 250°
2026-05-07 01:20 36.54560 -82.17477 30067 ft 359 kts 249°
2026-05-07 01:20 36.53587 -82.20324 29530 ft 361 kts 249°
2026-05-07 01:20 36.52612 -82.23172 29032 ft 357 kts 249°
2026-05-07 01:20 36.51647 -82.25984 28585 ft 350 kts 249°
2026-05-07 01:21 36.50699 -82.28745 28124 ft 345 kts 249°
2026-05-07 01:21 36.49764 -82.31466 27668 ft 339 kts 249°
2026-05-07 01:21 36.48848 -82.34135 27214 ft 332 kts 250°
2026-05-07 01:21 36.47948 -82.36754 26789 ft 327 kts 250°
2026-05-07 01:22 36.47064 -82.39330 26371 ft 320 kts 250°
2026-05-07 01:22 36.46199 -82.41850 25961 ft 315 kts 250°
2026-05-07 01:22 36.45313 -82.44427 25544 ft 336 kts 249°
2026-05-07 01:22 36.44377 -82.47153 25097 ft 349 kts 249°
2026-05-07 01:23 36.43415 -82.49941 24640 ft 353 kts 249°
2026-05-07 01:23 36.42447 -82.52737 24174 ft 351 kts 249°
2026-05-07 01:23 36.41485 -82.55508 23688 ft 347 kts 249°
2026-05-07 01:23 36.40549 -82.58204 23218 ft 341 kts 249°
2026-05-07 01:24 36.39623 -82.60873 22770 ft 333 kts 250°
2026-05-07 01:24 36.38715 -82.63487 22332 ft 326 kts 250°
2026-05-07 01:24 36.37824 -82.66049 21908 ft 320 kts 250°
2026-05-07 01:24 36.36951 -82.68558 21489 ft 314 kts 250°
2026-05-07 01:25 36.36095 -82.71022 21075 ft 308 kts 250°
2026-05-07 01:25 36.35256 -82.73434 20676 ft 302 kts 250°
2026-05-07 01:25 36.34429 -82.75808 20274 ft 297 kts 250°
2026-05-07 01:25 36.33615 -82.78140 19881 ft 292 kts 251°
2026-05-07 01:26 36.32825 -82.80400 19492 ft 287 kts 251°
2026-05-07 01:26 36.32037 -82.82659 19106 ft 282 kts 251°
2026-05-07 01:26 36.31257 -82.84895 18728 ft 290 kts 251°
2026-05-07 01:26 36.30428 -82.87296 18458 ft 309 kts 251°
2026-05-07 01:27 36.29584 -82.89719 18309 ft 310 kts 251°
2026-05-07 01:27 36.28719 -82.92188 17652 ft 316 kts 251°
2026-05-07 01:27 36.27832 -82.94729 16801 ft 323 kts 250°
2026-05-07 01:27 36.26942 -82.97265 16349 ft 316 kts 250°
2026-05-07 01:28 36.26075 -82.99721 16090 ft 305 kts 250°
2026-05-07 01:28 36.25233 -83.02111 15688 ft 299 kts 249°
2026-05-07 01:28 36.24411 -83.04452 15276 ft 294 kts 249°
2026-05-07 01:28 36.23604 -83.06754 14873 ft 289 kts 249°
2026-05-07 01:29 36.22820 -83.08991 14484 ft 284 kts 249°
2026-05-07 01:29 36.22037 -83.11223 14097 ft 281 kts 248°
2026-05-07 01:29 36.21249 -83.13472 13696 ft 299 kts 248°
2026-05-07 01:29 36.20382 -83.15941 13257 ft 320 kts 248°
2026-05-07 01:30 36.19500 -83.18436 13073 ft 309 kts 248°
2026-05-07 01:30 36.18652 -83.20826 13024 ft 301 kts 248°
2026-05-07 01:30 36.17801 -83.23231 13030 ft 307 kts 248°
2026-05-07 01:30 36.16952 -83.25632 13032 ft 306 kts 248°
2026-05-07 01:31 36.16097 -83.28041 13031 ft 306 kts 248°
2026-05-07 01:31 36.15245 -83.30444 12909 ft 304 kts 248°
2026-05-07 01:31 36.14391 -83.32860 12204 ft 312 kts 248°
2026-05-07 01:31 36.13502 -83.35377 11184 ft 325 kts 248°
2026-05-07 01:32 36.12585 -83.37965 10475 ft 329 kts 248°
2026-05-07 01:32 36.11683 -83.40502 10283 ft 315 kts 248°
2026-05-07 01:32 36.10817 -83.42928 10157 ft 301 kts 248°
2026-05-07 01:32 36.10001 -83.45210 10040 ft 287 kts 248°
2026-05-07 01:33 36.09210 -83.47425 9906 ft 275 kts 248°
2026-05-07 01:33 36.08450 -83.49553 9662 ft 266 kts 248°
2026-05-07 01:33 36.07706 -83.51647 9215 ft 265 kts 248°
2026-05-07 01:33 36.06962 -83.53736 8765 ft 265 kts 247°
2026-05-07 01:34 36.06217 -83.55819 8346 ft 264 kts 247°
2026-05-07 01:34 36.05484 -83.57865 7935 ft 263 kts 247°
2026-05-07 01:34 36.04747 -83.59922 7551 ft 262 kts 247°
2026-05-07 01:34 36.04014 -83.61975 7157 ft 261 kts 247°
2026-05-07 01:35 36.03280 -83.64026 6804 ft 260 kts 247°
2026-05-07 01:35 36.02551 -83.66060 6447 ft 258 kts 247°
2026-05-07 01:35 36.01833 -83.68055 6021 ft 258 kts 246°
2026-05-07 01:35 36.01097 -83.70109 5619 ft 257 kts 246°
2026-05-07 01:36 36.00376 -83.72127 5179 ft 258 kts 246°
2026-05-07 01:36 35.99650 -83.74146 4785 ft 256 kts 246°
2026-05-07 01:36 35.98928 -83.76150 4373 ft 255 kts 246°
2026-05-07 01:36 35.98066 -83.78033 4060 ft 253 kts 234°
2026-05-07 01:37 35.96943 -83.79677 3689 ft 252 kts 228°
2026-05-07 01:37 35.95709 -83.81165 3528 ft 242 kts 226°
2026-05-07 01:37 35.94547 -83.82600 3442 ft 231 kts 226°
2026-05-07 01:37 35.93436 -83.83958 3351 ft 217 kts 227°
2026-05-07 01:38 35.92396 -83.85233 3248 ft 205 kts 226°
2026-05-07 01:38 35.91428 -83.86420 3194 ft 186 kts 227°
2026-05-07 01:38 35.90550 -83.87498 3073 ft 171 kts 227°
2026-05-07 01:38 35.89738 -83.88490 2989 ft 155 kts 227°
2026-05-07 01:39 35.89035 -83.89355 2865 ft 135 kts 228°
2026-05-07 01:39 35.88398 -83.90138 2791 ft 132 kts 226°
2026-05-07 01:39 35.87739 -83.90945 2634 ft 132 kts 228°
2026-05-07 01:39 35.87082 -83.91750 2448 ft 134 kts 227°
2026-05-07 01:40 35.86424 -83.92555 2288 ft 133 kts 227°
2026-05-07 01:40 35.85767 -83.93362 2103 ft 133 kts 228°
2026-05-07 01:40 35.85115 -83.94158 1932 ft 134 kts 227°
2026-05-07 01:40 35.84451 -83.94973 1751 ft 134 kts 226°
2026-05-07 01:41 35.83797 -83.95774 1578 ft 134 kts 224°
2026-05-07 01:41 35.83135 -83.96582 1406 ft 134 kts 223°
2026-05-07 01:41 35.82480 -83.97384 1240 ft 132 kts 222°
2026-05-07 01:41 35.81830 -83.98180 1050 ft 133 kts 222°
2026-05-07 01:42 35.81202 -83.98947 967 ft 103 kts 226°
2026-05-07 01:42 35.80902 -83.99297 967 ft 16 kts 225°
2026-05-07 01:42 35.80875 -83.99332 967 ft 12 kts 226°
2026-05-07 01:42 35.80781 -83.99450 963 ft 27 kts 225°
2026-05-07 01:43 35.80653 -83.99506 965 ft 1 kts 130°
2026-05-07 01:43 35.80644 -83.99474 968 ft 9 kts 107°
2026-05-07 01:43 35.80591 -83.99360 980 ft 22 kts 130°
2026-05-07 01:43 35.80515 -83.99205 977 ft 10 kts 79°
2026-05-07 01:44 35.80556 -83.99139 978 ft 10 kts 39°
2026-05-07 01:44 35.80585 -83.99122 979 ft 0 kts 23°